Location: Ferchesar
(52.6477°N, 12.4298°E)
Time: 05:18:46
(UTC+01:00)

Tiros 1 - Pass Details

Date: 12 December 2021
Orbit: 629 x 664 km, 48.4° (Epoch: 25 January)

Event Time Altitude Azimuth Distance (km) Brightness Sun altitude
Rises 16:27:00 0° 232° (SW) 2,909 13.3 -4.7°
Reaches altitude 10° 16:29:27 10° 223° (SW) 2,005 11.3 -5.1°
Maximum altitude 16:33:37 34° 159° (SSE) 1,044 8.4 -5.6°
Drops below altitude 10° 16:37:48 10° 94° (E) 2,023 9.2 -6.1°
Enters shadow 16:39:12 - 89° (E) 2,531 9.7 -6.3°
